Tracking 29034 objects as of 25-Jun-2024
HD Live streaming from Space Station
objects crossing your sky now

YAOGAN-36 05B

Track YAOGAN-36 05B now!
10-day predictions


NORAD ID: 57454
Int'l Code: 2023-106C
Perigee: 497.9 km
Apogee: 511.2 km
Inclination: 35.0 °
Period: 94.6 minutes
Semi major axis: 6875 km
RCS: Unknown
Launch date: July 26, 2023
Source: People's Republic of China (PRC)
Launch site: Xichang Space Center, China (XSC)
Your satellite tracking list
Your tracking list is empty




NASA's NSSDC Master Catalog

Two Line Element Set (TLE):
1 57454U 23106C   24176.70670358  .00011803  00000-0  49301-3 0  9996
2 57454  34.9977 281.1558 0009651 309.8648  50.1218 15.22800416 50893
Source of the keplerian elements: AFSPC